Location: *
(55.6049°S, 142.1985°W)
Time: 23:35:58
(UTC+00:00)

Cosmos 2058 Rocket - Pass Details

Date: 12 May 2021
Orbit: 611 x 638 km, 82.5° (Epoch: 18 June)

Event Time Altitude Azimuth Distance (km) Brightness Sun altitude
Rises 15:58:08 0° 310° (NW) 2,940 6.2 -10.5°
Reaches altitude 10° 16:00:47 10° 294° (WNW) 2,035 5.3 -10.1°
Maximum altitude 16:04:22 23° 242° (WSW) 1,378 4.2 -9.7°
Drops below altitude 10° 16:07:58 10° 189° (S) 2,040 5.4 -9.2°
Sets 16:10:38 0° 174° (S) 2,949 6.4 -8.8°
